• In Romania
  • List of Countries
  • For 7 days
  • Water Temperature
  • Satellite Maps
  • Weather Map
  • Weather Widgets
  • user-avatar
    Login

    Hourly Weather Linz

    Today, 22 February, Wednesday

    Time Temperature Precipitation Wind Pressure Humidity
    00:00 +7°C° 0.1 mm 3 mps 733 mmHg 97%
    01:00 +7°C° 0 mm 2 mps 733 mmHg 98%
    02:00 +7°C° 0.2 mm 2 mps 733 mmHg 97%
    03:00 +7°C° 0.2 mm 3 mps 732 mmHg 97%
    04:00 +7°C° 0.2 mm 3 mps 732 mmHg 97%
    05:00 +7°C° 0.3 mm 3 mps 732 mmHg 97%
    06:00 +6°C° 0.3 mm 4 mps 732 mmHg 97%
    07:00 +7°C° 0 mm 3 mps 731 mmHg 97%
    08:00 +7°C° 0.3 mm 4 mps 731 mmHg 95%
    09:00 +7°C° 0.3 mm 4 mps 731 mmHg 93%
    10:00 +8°C° 0.3 mm 5 mps 730 mmHg 92%
    11:00 +8°C° 0 mm 5 mps 730 mmHg 90%
    12:00 +9°C° 0 mm 6 mps 730 mmHg 89%
    13:00 +9°C° 0 mm 6 mps 730 mmHg 88%
    14:00 +9°C° 0 mm 6 mps 730 mmHg 88%
    15:00 +9°C° 0 mm 6 mps 729 mmHg 88%
    16:00 +9°C° 0 mm 5 mps 729 mmHg 88%
    17:00 +8°C° 0.1 mm 5 mps 729 mmHg 89%
    18:00 +8°C° 0.1 mm 5 mps 729 mmHg 90%
    19:00 +7°C° 0.1 mm 5 mps 729 mmHg 92%
    20:00 +7°C° 0 mm 5 mps 729 mmHg 91%
    21:00 +7°C° 0 mm 5 mps 729 mmHg 91%
    22:00 +6°C° 0 mm 5 mps 729 mmHg 90%
    23:00 +5°C° 0 mm 6 mps 729 mmHg 90%

    Tomorrow, 23 February, Thursday

    Time Temperature Precipitation Wind Pressure Humidity
    00:00 +5°C° 0 mm 6 mps 729 mmHg 89%
    01:00 +5°C° 0 mm 6 mps 729 mmHg 89%
    02:00 +5°C° 0 mm 6 mps 729 mmHg 88%
    03:00 +4°C° 0 mm 6 mps 729 mmHg 88%
    04:00 +4°C° 0 mm 6 mps 729 mmHg 88%
    05:00 +5°C° 0 mm 5 mps 728 mmHg 88%
    06:00 +5°C° 0 mm 5 mps 728 mmHg 88%
    07:00 +4°C° 0 mm 4 mps 728 mmHg 88%
    08:00 +6°C° 0 mm 5 mps 728 mmHg 84%
    09:00 +7°C° 0 mm 5 mps 728 mmHg 81%
    10:00 +8°C° 0 mm 5 mps 728 mmHg 78%
    11:00 +9°C° 0 mm 5 mps 727 mmHg 74%
    12:00 +11°C° 0 mm 4 mps 727 mmHg 70%
    13:00 +12°C° 0 mm 4 mps 726 mmHg 66%
    14:00 +12°C° 0 mm 4 mps 725 mmHg 69%
    15:00 +12°C° 0 mm 3 mps 725 mmHg 72%
    16:00 +12°C° 0 mm 3 mps 724 mmHg 75%
    17:00 +10°C° 0 mm 3 mps 724 mmHg 80%
    18:00 +9°C° 0 mm 3 mps 724 mmHg 85%
    19:00 +7°C° 0 mm 3 mps 723 mmHg 89%
    20:00 +6°C° 0 mm 4 mps 723 mmHg 89%
    21:00 +5°C° 0 mm 4 mps 723 mmHg 88%
    22:00 +5°C° 0 mm 4 mps 723 mmHg 87%
    23:00 +5°C° 0 mm 5 mps 723 mmHg 87%

    Day after tomorrow, 24 February, Friday

    Time Temperature Precipitation Wind Pressure Humidity
    00:00 +5°C° 0 mm 5 mps 724 mmHg 87%
    01:00 +4°C° 0 mm 6 mps 724 mmHg 87%
    02:00 +4°C° 0.5 mm 6 mps 724 mmHg 86%
    03:00 +3°C° 0.5 mm 6 mps 724 mmHg 86%
    04:00 +3°C° 0.5 mm 6 mps 724 mmHg 85%
    05:00 +3°C° 0.5 mm 5 mps 725 mmHg 87%
    06:00 +2°C° 0.5 mm 5 mps 726 mmHg 88%
    07:00 +2°C° 0.5 mm 5 mps 726 mmHg 90%
    08:00 +2°C° 0.3 mm 5 mps 727 mmHg 89%
    09:00 +2°C° 0.3 mm 5 mps 727 mmHg 88%
    10:00 +2°C° 0.3 mm 5 mps 728 mmHg 88%
    11:00 +3°C° 0.2 mm 5 mps 728 mmHg 86%
    12:00 +3°C° 0.2 mm 5 mps 728 mmHg 84%
    13:00 +3°C° 0.2 mm 5 mps 728 mmHg 83%
    14:00 +4°C° 0.2 mm 4 mps 728 mmHg 83%
    15:00 +4°C° 0.2 mm 4 mps 729 mmHg 84%
    16:00 +4°C° 0.2 mm 4 mps 729 mmHg 85%
    17:00 +3°C° 0.2 mm 3 mps 730 mmHg 87%
    18:00 +2°C° 0.2 mm 3 mps 730 mmHg 90%
    19:00 +3°C° 0.2 mm 2 mps 731 mmHg 93%
    20:00 +2°C° 0.2 mm 2 mps 732 mmHg 94%
    21:00 +2°C° 0.2 mm 2 mps 733 mmHg 95%
    22:00 +2°C° 0.2 mm 2 mps 733 mmHg 96%
    23:00 +1°C° 0.2 mm 2 mps 734 mmHg 96%

    25 February, Saturday

    Time Temperature Precipitation Wind Pressure Humidity
    00:00 +1°C° 0.2 mm 2 mps 734 mmHg 97%
    01:00 +1°C° 0.2 mm 2 mps 735 mmHg 97%
    02:00 +1°C° 0.1 mm 2 mps 735 mmHg 97%
    03:00 +1°C° 0.1 mm 2 mps 735 mmHg 96%
    04:00 0°C° 0.1 mm 3 mps 736 mmHg 96%
    05:00 0°C° 0.1 mm 3 mps 736 mmHg 96%
    06:00 0°C° 0.1 mm 3 mps 737 mmHg 96%
    07:00 0°C° 0.1 mm 3 mps 738 mmHg 95%
    08:00 +1°C° 0 mm 3 mps 738 mmHg 92%
    09:00 +1°C° 0 mm 3 mps 738 mmHg 89%
    10:00 +2°C° 0 mm 3 mps 739 mmHg 86%
    11:00 +3°C° 0 mm 3 mps 738 mmHg 82%
    12:00 +4°C° 0 mm 2 mps 738 mmHg 79%
    13:00 +5°C° 0 mm 2 mps 738 mmHg 76%
    14:00 +5°C° 0 mm 2 mps 738 mmHg 77%
    15:00 +5°C° 0 mm 2 mps 738 mmHg 78%
    16:00 +6°C° 0 mm 1 mps 737 mmHg 79%
    17:00 +4°C° 0 mm 1 mps 738 mmHg 83%
    18:00 +3°C° 0 mm 1 mps 738 mmHg 87%
    19:00 +1°C° 0 mm 1 mps 738 mmHg 91%
    20:00 +1°C° 0 mm 1 mps 738 mmHg 91%
    21:00 +1°C° 0 mm 1 mps 738 mmHg 91%
    22:00 +1°C° 0 mm 1 mps 738 mmHg 90%
    23:00 +1°C° 0 mm 1 mps 738 mmHg 90%

    26 February, Sunday

    Time Temperature Precipitation Wind Pressure Humidity
    00:00 +1°C° 0 mm 1 mps 737 mmHg 89%
    01:00 +1°C° 0 mm 1 mps 737 mmHg 88%
    02:00 +1°C° 0 mm 1 mps 737 mmHg 87%
    03:00 +1°C° 0 mm 1 mps 736 mmHg 87%
    04:00 +1°C° 0 mm 1 mps 736 mmHg 86%
    05:00 +1°C° 0 mm 1 mps 736 mmHg 85%
    06:00 +1°C° 0 mm 1 mps 736 mmHg 83%
    07:00 +2°C° 0 mm 1 mps 736 mmHg 82%
    08:00 +3°C° 0 mm 1 mps 736 mmHg 78%
    09:00 +5°C° 0 mm 1 mps 736 mmHg 74%
    10:00 +7°C° 0 mm 1 mps 736 mmHg 70%
    11:00 +7°C° 0 mm 2 mps 735 mmHg 68%
    12:00 +8°C° 0 mm 2 mps 735 mmHg 67%
    13:00 +9°C° 0 mm 2 mps 735 mmHg 66%
    14:00 +9°C° 0 mm 2 mps 734 mmHg 70%
    15:00 +9°C° 0 mm 2 mps 734 mmHg 74%
    16:00 +9°C° 0 mm 2 mps 734 mmHg 78%
    17:00 +7°C° 0 mm 2 mps 734 mmHg 81%
    18:00 +5°C° 0 mm 2 mps 734 mmHg 84%
    19:00 +3°C° 0 mm 2 mps 734 mmHg 87%
    20:00 +3°C° 0 mm 2 mps 734 mmHg 87%
    21:00 +3°C° 0 mm 1 mps 734 mmHg 86%
    22:00 +3°C° 0 mm 1 mps 734 mmHg 85%
    23:00 +3°C° 0 mm 1 mps 734 mmHg 86%

    27 February, Monday

    Time Temperature Precipitation Wind Pressure Humidity
    00:00 +3°C° 0 mm 1 mps 734 mmHg 86%
    01:00 +2°C° 0 mm 1 mps 734 mmHg 86%
    02:00 +2°C° 0 mm 1 mps 734 mmHg 86%
    03:00 +2°C° 0 mm 1 mps 734 mmHg 86%
    04:00 +2°C° 0 mm 1 mps 733 mmHg 86%
    05:00 +2°C° 0 mm 1 mps 733 mmHg 85%
    06:00 +2°C° 0 mm 1 mps 734 mmHg 85%
    07:00 +2°C° 0 mm 1 mps 734 mmHg 85%
    08:00 +5°C° 0 mm 1 mps 734 mmHg 79%
    09:00 +7°C° 0 mm 1 mps 734 mmHg 74%
    10:00 +9°C° 0 mm 1 mps 734 mmHg 68%
    11:00 +11°C° 0 mm 1 mps 733 mmHg 66%
    12:00 +12°C° 0 mm 1 mps 732 mmHg 63%
    13:00 +13°C° 0 mm 1 mps 732 mmHg 61%
    14:00 +12°C° 0 mm 1 mps 731 mmHg 66%
    15:00 +12°C° 0 mm 1 mps 731 mmHg 71%
    16:00 +12°C° 0 mm 1 mps 730 mmHg 76%
    17:00 +9°C° 0 mm 1 mps 730 mmHg 81%
    18:00 +7°C° 0 mm 1 mps 730 mmHg 85%
    19:00 +5°C° 0 mm 1 mps 730 mmHg 90%
    20:00 +5°C° 0 mm 1 mps 729 mmHg 90%
    21:00 +4°C° 0 mm 2 mps 729 mmHg 90%
    22:00 +3°C° 0 mm 2 mps 729 mmHg 90%
    23:00 +3°C° 0 mm 2 mps 728 mmHg 90%
    Show more